When you browse on this site, cookies collect data to enhance your experience and personalize the content and advertising you see.
Visit our Privacy Policy to learn more. By continuing to use the site, you agree to this use of cookies and data.
  • In Latvia
  • List of Countries
  • For 7 days
  • Water Temperature
  • Weather Map
  • Weather Widgets
  • user-avatar
    Login

    Hourly Weather Sergeykovo

    Today, 16 October, Wednesday

    Time Temperature Precipitation Wind Pressure Humidity
    00:00 +5°C° 0 mm 4 mps 754 mmHg 89%
    01:00 +6°C° 0 mm 4 mps 754 mmHg 90%
    02:00 +6°C° 0 mm 4 mps 753 mmHg 90%
    03:00 +7°C° 0 mm 4 mps 753 mmHg 90%
    04:00 +7°C° 0 mm 4 mps 752 mmHg 91%
    05:00 +7°C° 0 mm 4 mps 751 mmHg 91%
    06:00 +8°C° 0 mm 4 mps 751 mmHg 91%
    07:00 +8°C° 0 mm 4 mps 751 mmHg 90%
    08:00 +10°C° 0 mm 4 mps 750 mmHg 88%
    09:00 +10°C° 0 mm 5 mps 750 mmHg 83%
    10:00 +13°C° 0 mm 5 mps 749 mmHg 78%
    11:00 +14°C° 0 mm 5 mps 749 mmHg 73%
    12:00 +15°C° 0 mm 5 mps 749 mmHg 71%
    13:00 +16°C° 0 mm 5 mps 748 mmHg 69%
    14:00 +17°C° 0 mm 5 mps 747 mmHg 65%
    15:00 +17°C° 0 mm 4 mps 747 mmHg 68%
    16:00 +15°C° 0 mm 4 mps 747 mmHg 72%
    17:00 +14°C° 0 mm 3 mps 746 mmHg 75%
    18:00 +13°C° 0 mm 3 mps 746 mmHg 77%
    19:00 +13°C° 0 mm 3 mps 746 mmHg 79%
    20:00 +12°C° 0 mm 3 mps 746 mmHg 81%
    21:00 +12°C° 0 mm 3 mps 746 mmHg 84%
    22:00 +12°C° 0 mm 3 mps 746 mmHg 86%
    23:00 +11°C° 0 mm 3 mps 746 mmHg 89%

    Tomorrow, 17 October, Thursday

    Time Temperature Precipitation Wind Pressure Humidity
    00:00 +11°C° 0 mm 3 mps 746 mmHg 90%
    01:00 +11°C° 0 mm 3 mps 746 mmHg 91%
    02:00 +11°C° 0 mm 3 mps 746 mmHg 91%
    03:00 +11°C° 0 mm 3 mps 746 mmHg 92%
    04:00 +12°C° 0 mm 3 mps 746 mmHg 92%
    05:00 +12°C° 0 mm 3 mps 746 mmHg 92%
    06:00 +12°C° 0.1 mm 3 mps 746 mmHg 91%
    07:00 +12°C° 0.1 mm 4 mps 746 mmHg 90%
    08:00 +12°C° 0.1 mm 4 mps 746 mmHg 89%
    09:00 +12°C° 0.1 mm 4 mps 746 mmHg 86%
    10:00 +12°C° 0.1 mm 4 mps 746 mmHg 82%
    11:00 +12°C° 0.1 mm 4 mps 746 mmHg 79%
    12:00 +12°C° 0.7 mm 4 mps 746 mmHg 82%
    13:00 +12°C° 0.7 mm 4 mps 746 mmHg 85%
    14:00 +12°C° 0.7 mm 4 mps 746 mmHg 88%
    15:00 +11°C° 0.3 mm 3 mps 746 mmHg 90%
    16:00 +11°C° 0.3 mm 3 mps 746 mmHg 92%
    17:00 +12°C° 0.3 mm 2 mps 746 mmHg 93%
    18:00 +12°C° 0.1 mm 2 mps 747 mmHg 94%
    19:00 +12°C° 0.1 mm 2 mps 747 mmHg 94%
    20:00 +11°C° 0.1 mm 3 mps 747 mmHg 94%
    21:00 +11°C° 0 mm 3 mps 748 mmHg 94%
    22:00 +12°C° 0 mm 3 mps 748 mmHg 93%
    23:00 +12°C° 0 mm 4 mps 748 mmHg 93%

    Day after tomorrow, 18 October, Friday

    Time Temperature Precipitation Wind Pressure Humidity
    00:00 +11°C° 0 mm 3 mps 749 mmHg 93%
    01:00 +11°C° 0 mm 3 mps 749 mmHg 93%
    02:00 +11°C° 0 mm 3 mps 749 mmHg 93%
    03:00 +11°C° 0 mm 3 mps 749 mmHg 93%
    04:00 +10°C° 0 mm 3 mps 749 mmHg 94%
    05:00 +10°C° 0 mm 2 mps 749 mmHg 95%
    06:00 +10°C° 0 mm 2 mps 749 mmHg 94%
    07:00 +10°C° 0 mm 2 mps 750 mmHg 94%
    08:00 +10°C° 0 mm 2 mps 750 mmHg 94%
    09:00 +12°C° 0 mm 2 mps 750 mmHg 92%
    10:00 +12°C° 0 mm 2 mps 750 mmHg 90%
    11:00 +13°C° 0 mm 2 mps 751 mmHg 89%
    12:00 +13°C° 0 mm 2 mps 751 mmHg 88%
    13:00 +14°C° 0 mm 2 mps 751 mmHg 88%
    14:00 +14°C° 0 mm 2 mps 751 mmHg 88%
    15:00 +14°C° 0 mm 2 mps 751 mmHg 90%
    16:00 +13°C° 0 mm 1 mps 751 mmHg 92%
    17:00 +13°C° 0 mm 1 mps 751 mmHg 94%
    18:00 +13°C° 0 mm 1 mps 751 mmHg 94%
    19:00 +13°C° 0 mm 1 mps 751 mmHg 95%
    20:00 +12°C° 0 mm 1 mps 751 mmHg 95%
    21:00 +12°C° 0 mm 1 mps 751 mmHg 95%
    22:00 +12°C° 0 mm 2 mps 751 mmHg 95%
    23:00 +12°C° 0 mm 2 mps 751 mmHg 95%

    19 October, Saturday

    Time Temperature Precipitation Wind Pressure Humidity
    00:00 +12°C° 0 mm 2 mps 751 mmHg 95%
    01:00 +12°C° 0 mm 2 mps 751 mmHg 94%
    02:00 +12°C° 0 mm 2 mps 751 mmHg 94%
    03:00 +10°C° 0 mm 2 mps 751 mmHg 94%
    04:00 +10°C° 0 mm 2 mps 751 mmHg 94%
    05:00 +10°C° 0 mm 2 mps 751 mmHg 94%
    06:00 +10°C° 0 mm 2 mps 751 mmHg 93%
    07:00 +10°C° 0 mm 2 mps 751 mmHg 91%
    08:00 +10°C° 0 mm 2 mps 750 mmHg 90%
    09:00 +12°C° 0 mm 2 mps 750 mmHg 87%
    10:00 +12°C° 0 mm 3 mps 750 mmHg 85%
    11:00 +13°C° 0 mm 3 mps 751 mmHg 82%
    12:00 +14°C° 0 mm 3 mps 750 mmHg 81%
    13:00 +14°C° 0 mm 3 mps 750 mmHg 81%
    14:00 +16°C° 0 mm 3 mps 750 mmHg 80%
    15:00 +15°C° 0 mm 2 mps 750 mmHg 84%
    16:00 +14°C° 0 mm 2 mps 750 mmHg 89%
    17:00 +13°C° 0 mm 2 mps 750 mmHg 93%
    18:00 +13°C° 0 mm 2 mps 751 mmHg 94%
    19:00 +12°C° 0 mm 2 mps 751 mmHg 95%
    20:00 +12°C° 0 mm 2 mps 751 mmHg 95%
    21:00 +12°C° 0 mm 2 mps 751 mmHg 96%
    22:00 +12°C° 0 mm 2 mps 751 mmHg 96%
    23:00 +10°C° 0 mm 2 mps 751 mmHg 96%

    20 October, Sunday

    Time Temperature Precipitation Wind Pressure Humidity
    00:00 +11°C° 0 mm 1 mps 751 mmHg 96%
    01:00 +11°C° 0 mm 1 mps 751 mmHg 96%
    02:00 +11°C° 0 mm 1 mps 751 mmHg 96%
    03:00 +11°C° 0 mm 1 mps 751 mmHg 96%
    04:00 +11°C° 0 mm 1 mps 751 mmHg 96%
    05:00 +11°C° 0 mm 1 mps 752 mmHg 96%
    06:00 +11°C° 0 mm 1 mps 752 mmHg 96%
    07:00 +11°C° 0 mm 1 mps 752 mmHg 96%
    08:00 +11°C° 0 mm 1 mps 752 mmHg 96%
    09:00 +12°C° 0 mm 1 mps 752 mmHg 91%
    10:00 +13°C° 0 mm 1 mps 752 mmHg 87%
    11:00 +15°C° 0 mm 1 mps 752 mmHg 83%
    12:00 +15°C° 0 mm 1 mps 752 mmHg 82%
    13:00 +16°C° 0 mm 1 mps 752 mmHg 82%
    14:00 +16°C° 0 mm 2 mps 752 mmHg 81%
    15:00 +15°C° 0 mm 2 mps 751 mmHg 85%
    16:00 +14°C° 0 mm 2 mps 751 mmHg 89%
    17:00 +13°C° 0 mm 1 mps 751 mmHg 94%
    18:00 +13°C° 0 mm 2 mps 751 mmHg 94%
    19:00 +13°C° 0 mm 2 mps 751 mmHg 95%
    20:00 +12°C° 0 mm 2 mps 751 mmHg 95%
    21:00 +12°C° 0 mm 2 mps 751 mmHg 95%
    22:00 +12°C° 0 mm 2 mps 751 mmHg 95%
    23:00 +12°C° 0 mm 2 mps 751 mmHg 96%

    21 October, Monday

    Time Temperature Precipitation Wind Pressure Humidity
    00:00 +12°C° 0 mm 2 mps 751 mmHg 96%
    01:00 +12°C° 0 mm 2 mps 750 mmHg 96%
    02:00 +10°C° 0 mm 2 mps 750 mmHg 96%
    03:00 +10°C° 0 mm 2 mps 750 mmHg 96%
    04:00 +10°C° 0 mm 2 mps 750 mmHg 97%
    05:00 +10°C° 0 mm 2 mps 750 mmHg 97%
    06:00 +10°C° 0 mm 2 mps 750 mmHg 97%
    07:00 +10°C° 0 mm 2 mps 750 mmHg 97%
    08:00 +10°C° 0 mm 2 mps 750 mmHg 97%
    09:00 +12°C° 0 mm 2 mps 751 mmHg 94%
    10:00 +13°C° 0 mm 2 mps 751 mmHg 91%
    11:00 +14°C° 0 mm 2 mps 752 mmHg 88%
    12:00 +13°C° 0 mm 3 mps 752 mmHg 84%
    13:00 +13°C° 0 mm 3 mps 752 mmHg 80%
    14:00 +14°C° 0 mm 3 mps 753 mmHg 75%
    15:00 +12°C° 0 mm 3 mps 753 mmHg 80%
    16:00 +12°C° 0 mm 2 mps 753 mmHg 85%
    17:00 +10°C° 0 mm 2 mps 754 mmHg 90%
    18:00 +10°C° 0 mm 2 mps 754 mmHg 91%
    19:00 +9°C° 0 mm 2 mps 754 mmHg 92%
    20:00 +9°C° 0 mm 2 mps 754 mmHg 93%
    21:00 +9°C° 0 mm 2 mps 754 mmHg 94%
    22:00 +8°C° 0 mm 2 mps 755 mmHg 95%
    23:00 +8°C° 0 mm 2 mps 755 mmHg 95%
    Show more